STARLINK-30293 (57649 NORAD) Tracking and Keplerian Element Data

This shows tracking and keplerian element data for the satellite.

Feedback or suggestion? Click here.




ElementValue
Catalog57649
NameSTARLINK-30293
Epoch Orbit2411
Epoch Day12.51016265
Epoch Year2024
RAAN22.5413
Inclination42.9958
Eccentricity0.0017467
Argument of Perigee106.2324
Mean Anonmoly254.0456
Mean Motion15.41000708
Decay Rate0.00041373
L11 57649U 23122T 24012.51016265 .00041373 00000+0 97749-3 0 9992
L22 57649 42.9958 22.5413 0017467 106.2324 254.0456 15.41000708 24110



Live tracking and technical data element details for STARLINK-30293 (NORAD 57649). STARLINK-30293 can be tracked NOW for your location showing map with azimuth and elevation plus other details from your city location.







IsCatalogInMostPopularTable: catalog: 57649, numindb: 43
Update: records affected: 1



GetName: 57649 STARLINK-30293

Hit Count: updated at: Thu, 29 Feb 2024 10:55:50 GMT